Location: Glums�
(55.3568°N, 11.6856°E)
Time: 00:41:00
(UTC+00:00)

Daily predictions for brighter satellites

Satellite Brightness Start Highest point End
(mag) Time Altitude Azimuth Time Altitude Azimuth Time Altitude Azimuth
STARLINK-1342 2.9 00:00:10 10° W 00:03:14 56° S 00:06:19 10° ESE
STARLINK-1364 2.9 00:00:30 10° W 00:03:35 56° S 00:06:39 10° ESE
STARLINK-1376 2.9 00:00:50 10° W 00:03:55 56° S 00:06:59 10° ESE
STARLINK-1360 2.9 00:01:11 10° W 00:04:15 56° S 00:07:20 10° ESE
STARLINK-1361 2.9 00:01:32 10° W 00:04:36 55° S 00:07:40 10° ESE
STARLINK-1367 2.9 00:01:47 10° W 00:04:53 55° S 00:07:59 10° ESE
Cosmos 1400 Rocket 3.1 00:00:57 10° N 00:05:07 69° ENE 00:09:10 10° SSE
STARLINK-1366 2.9 00:02:10 10° W 00:05:14 55° S 00:08:19 10° ESE
Cosmos 2227 Rocket 3.6 00:02:07 10° NW 00:06:31 23° WSW 00:10:10 13° SSW
DELTA 2 DEB (DPAF) 4.4 00:02:45 10° SSE 00:07:12 72° ENE 00:11:41 10° NNW
STARLINK-66 4.3 00:07:08 18° S 00:08:22 23° SSE 00:10:59 10° E
Cosmos 1570 Rocket 4.2 00:04:53 15° SSW 00:09:15 66° ESE 00:14:30 10° NNE
STARLINK-1338 3.5 00:05:29 10° W 00:09:26 63° S 00:13:23 10° E
Cosmos 1763 Rocket 3.5 00:05:58 14° SSW 00:10:22 86° WNW 00:15:29 10° NNE
Cosmos 1709 Rocket 4.0 00:05:05 14° S 00:10:26 87° E 00:16:42 10° NNE
Cosmos 2084 Rocket 4.4 00:07:39 10° WNW 00:11:38 32° SW 00:14:57 14° S
STARLINK-52 3.2 00:09:13 10° W 00:12:19 45° SSW 00:15:24 10° ESE
NOSS 7 (E) 4.2 00:09:44 15° SW 00:12:23 69° SE 00:15:27 10° NE
Cosmos 2227 4.2 00:07:24 10° NW 00:13:11 84° WSW 00:18:58 10° SSE
Cosmos 2298 Rocket 4.0 00:08:48 10° NNW 00:14:07 76° WSW 00:19:26 10° SSE
STARLINK-1371 3.5 00:13:49 10° W 00:17:45 63° S 00:21:40 10° E
SL-16 R/B 2.8 00:12:00 10° SSE 00:18:07 72° ENE 00:24:20 10° NNW
STARLINK-1260 4.5 00:17:14 16° S 00:18:20 19° SSE 00:20:41 10° E
Cosmos 1758 Rocket 3.6 00:15:28 15° SSW 00:19:05 85° W 00:23:35 10° N
STARLINK-1318 4.5 00:18:06 16° S 00:19:13 20° SSE 00:21:35 10° E
Cosmos 1844 Rocket 4.3 00:14:17 10° NNW 00:19:30 36° NE 00:24:39 10° ESE
STARLINK-75 4.2 00:18:02 17° SSW 00:19:34 24° SSE 00:22:16 10° E
GEOS 3 Rocket 3.8 00:14:35 10° SE 00:19:50 82° NE 00:25:12 10° NW
STARLINK-1275 4.5 00:18:59 17° S 00:20:08 20° SSE 00:22:31 10° E
CZ-4 R/B 4.0 00:16:00 10° NNE 00:20:43 65° WNW 00:24:50 13° SSW
STARLINK-1309 4.5 00:19:50 16° S 00:21:01 20° SSE 00:23:24 10° E
STARLINK-1282 4.4 00:20:42 16° S 00:21:54 20° SSE 00:24:18 10° E
STARLINK-1341 3.5 00:18:11 10° W 00:22:08 63° S 00:26:04 10° E
STARLINK-1313 4.3 00:21:38 17° S 00:22:58 22° SSE 00:25:28 10° E
IRAS Rocket 4.3 00:18:06 11° S 00:23:24 66° WSW 00:28:55 10° NNW
STARLINK-1279 4.3 00:22:32 17° S 00:23:54 22° SSE 00:26:24 10° E
STARLINK-1298 4.4 00:23:16 16° S 00:24:33 21° SSE 00:26:59 10° E
STARLINK-1293 4.4 00:24:09 16° S 00:25:28 21° SSE 00:27:56 10° E
STARLINK-1374 3.5 00:22:31 10° W 00:26:29 63° S 00:30:27 10° ESE
STARLINK-1255 4.4 00:25:54 16° S 00:27:16 22° SSE 00:29:45 10° E
STARLINK-1444 3.8 00:25:55 10° WSW 00:26:52 17° SW 00:26:52 17° SW
STARLINK-22 4.3 00:26:15 16° SSW 00:27:51 23° SSE 00:30:29 10° E
SL-16 R/B 3.8 00:23:32 10° SSE 00:28:02 25° ESE 00:32:32 10° NE
STARLINK 1040 3.0 00:26:21 16° SW 00:28:05 36° SSE 00:30:29 10° E
Cosmos 2208 Rocket 4.1 00:23:37 14° SSW 00:28:15 76° ESE 00:33:40 10° NNE
STARLINK-1452 4.0 00:26:34 10° WSW 00:27:18 15° WSW 00:27:18 15° WSW
STARLINK-1399 4.5 00:27:25 10° WSW 00:27:36 11° WSW 00:27:36 11° WSW
STARLINK-1393 4.5 00:27:27 10° WSW 00:27:35 11° WSW 00:27:35 11° WSW
STARLINK-1394 4.5 00:27:29 10° WSW 00:27:37 11° WSW 00:27:37 11° WSW
STARLINK-1397 4.4 00:27:32 10° WSW 00:27:44 11° WSW 00:27:44 11° WSW
STARLINK-1396 4.5 00:27:33 10° WSW 00:27:42 11° WSW 00:27:42 11° WSW
STARLINK-1404 4.4 00:27:38 10° WSW 00:27:49 11° WSW 00:27:49 11° WSW
STARLINK-1415 4.4 00:27:39 10° WSW 00:27:57 12° WSW 00:27:57 12° WSW
STARLINK-1450 4.4 00:27:42 10° WSW 00:28:00 12° WSW 00:28:00 12° WSW
STARLINK-1401 4.4 00:27:43 10° WSW 00:28:00 12° WSW 00:28:00 12° WSW
STARLINK-1417 4.4 00:27:46 10° WSW 00:28:04 12° WSW 00:28:04 12° WSW
STARLINK-1413 4.4 00:27:47 10° WSW 00:28:05 12° WSW 00:28:05 12° WSW
STARLINK-1402 4.4 00:27:47 10° WSW 00:28:05 12° WSW 00:28:05 12° WSW
STARLINK-1419 4.4 00:27:48 10° WSW 00:28:00 11° WSW 00:28:00 11° WSW
STARLINK-1422 4.4 00:27:54 10° WSW 00:28:09 12° WSW 00:28:09 12° WSW
STARLINK-1453 4.3 00:27:55 10° WSW 00:28:18 13° WSW 00:28:18 13° WSW
STARLINK-1398 4.2 00:27:56 10° WSW 00:28:28 14° WSW 00:28:28 14° WSW
STARLINK-1420 4.3 00:27:58 10° WSW 00:28:18 12° WSW 00:28:18 12° WSW
STARLINK-1440 4.3 00:28:00 10° WSW 00:28:21 12° WSW 00:28:21 12° WSW
STARLINK-1460 4.3 00:28:00 10° WSW 00:28:20 12° WSW 00:28:20 12° WSW
CZ-2D R/B 3.1 00:24:48 10° NNE 00:29:42 39° E 00:34:34 10° SSE
STARLINK-1436 (VISORSAT) 4.2 00:28:00 10° WSW 00:28:33 14° WSW 00:28:33 14° WSW
STARLINK-1410 4.4 00:28:05 10° WSW 00:28:22 12° WSW 00:28:22 12° WSW
STARLINK-1423 4.5 00:28:06 10° WSW 00:28:16 11° WSW 00:28:16 11° WSW
STARLINK-1421 4.5 00:28:07 10° WSW 00:28:16 11° WSW 00:28:16 11° WSW
STARLINK-1400 4.4 00:28:06 10° WSW 00:28:24 12° WSW 00:28:24 12° WSW
STARLINK-1311 4.1 00:28:27 17° S 00:29:47 23° SSE 00:32:11 10° E
STARLINK-1454 4.3 00:28:07 10° WSW 00:28:26 12° WSW 00:28:26 12° WSW
STARLINK-1458 4.4 00:28:10 10° WSW 00:28:24 12° WSW 00:28:24 12° WSW
STARLINK-1445 4.3 00:28:12 10° WSW 00:28:35 13° WSW 00:28:35 13° WSW
STARLINK-1407 4.3 00:28:14 10° WSW 00:28:35 12° WSW 00:28:35 12° WSW
STARLINK-1446 4.3 00:28:14 10° WSW 00:28:37 13° WSW 00:28:37 13° WSW
STARLINK-1370 4.3 00:28:17 10° WSW 00:28:37 12° WSW 00:28:37 12° WSW
STARLINK-1451 4.4 00:28:19 10° WSW 00:28:33 12° WSW 00:28:33 12° WSW
STARLINK-1456 4.4 00:28:19 10° WSW 00:28:33 12° WSW 00:28:33 12° WSW
STARLINK-1457 4.4 00:28:19 10° WSW 00:28:33 12° WSW 00:28:33 12° WSW
STARLINK-1409 4.4 00:28:19 10° WSW 00:28:33 12° WSW 00:28:33 12° WSW
STARLINK-1447 4.3 00:28:19 10° WSW 00:28:41 12° WSW 00:28:41 12° WSW
STARLINK-1455 4.3 00:28:20 10° WSW 00:28:41 12° WSW 00:28:41 12° WSW
STARLINK-1437 4.4 00:28:21 10° WSW 00:28:38 12° WSW 00:28:38 12° WSW
STARLINK-1441 4.3 00:28:22 10° WSW 00:28:44 12° WSW 00:28:44 12° WSW
STARLINK-1443 4.2 00:28:25 10° WSW 00:28:52 13° WSW 00:28:52 13° WSW
STARLINK-1351 4.3 00:28:26 10° WSW 00:28:49 12° WSW 00:28:49 12° WSW
STARLINK-1418 4.3 00:28:26 10° WSW 00:28:48 12° WSW 00:28:48 12° WSW
STARLINK-1403 4.3 00:28:27 10° WSW 00:28:52 13° WSW 00:28:52 13° WSW
STARLINK-1434 4.2 00:28:27 10° WSW 00:28:54 13° WSW 00:28:54 13° WSW
STARLINK-1442 4.3 00:28:28 10° WSW 00:28:50 13° WSW 00:28:50 13° WSW
STARLINK-1433 4.3 00:28:30 10° WSW 00:28:51 12° WSW 00:28:51 12° WSW
STARLINK-1448 4.3 00:28:30 10° WSW 00:28:51 12° WSW 00:28:51 12° WSW
STARLINK-1449 4.3 00:28:32 10° WSW 00:28:57 13° WSW 00:28:57 13° WSW
STARLINK-1438 4.4 00:28:36 10° WSW 00:28:49 11° WSW 00:28:49 11° WSW
STARLINK-1411 4.4 00:28:43 10° WSW 00:29:01 12° WSW 00:29:01 12° WSW
STARLINK-1412 4.3 00:28:43 10° WSW 00:29:05 12° WSW 00:29:05 12° WSW
STARLINK-1339 3.5 00:26:46 10° W 00:30:43 62° S 00:34:39 10° ESE
Cosmos-2242 3.5 00:26:52 10° NNW 00:30:56 45° W 00:34:23 14° SSW
Meteor 2-10 Rocket 4.4 00:26:37 10° NNW 00:31:16 34° W 00:35:16 13° SSW
Cosmos 2221 3.2 00:29:29 10° N 00:33:48 54° ENE 00:38:06 10° SSE
MOZ.5/SAFIR/RUBIN 5/SL-8 3.8 00:29:28 10° SSE 00:34:07 83° WSW 00:38:48 10° NNW
USA 81 4.3 00:30:17 13° SSW 00:34:55 61° WNW 00:40:12 10° N
STARLINK-1377 3.5 00:31:10 10° W 00:35:08 62° S 00:39:06 10° ESE
USA 215 4.0 00:29:33 10° SSE 00:35:10 30° SW 00:40:49 10° WNW
Cosmos 1953 Rocket 3.6 00:33:32 13° S 00:37:27 86° E 00:41:52 10° NNE
BREEZE-M R/B 3.3 00:32:33 10° WSW 00:37:43 38° S 00:40:41 10° ESE
STARLINK-42 3.9 00:36:26 15° SSW 00:38:27 29° SSE 00:41:14 10° E
GP-B 3.2 00:34:09 10° N 00:38:37 81° E 00:42:59 11° S
STARLINK-1353 3.5 00:35:30 10° W 00:39:27 62° S 00:43:25 10° ESE
STARLINK-60 4.1 00:37:22 10° W 00:40:00 23° SSW 00:42:36 10° SSE
SeaSat 1 4.0 00:36:02 10° NNE 00:40:23 32° NW 00:44:44 10° W
FALCON 9 DEB 3.4 00:37:23 10° W 00:40:41 46° SSW 00:44:01 10° ESE
Cosmos 1315 Rocket 3.2 00:36:47 10° N 00:40:42 63° ENE 00:44:36 10° SSE
Cosmos 1842 Rocket 3.8 00:36:17 10° N 00:40:48 73° ENE 00:45:13 10° SSE
STARLINK-34 4.4 00:40:02 15° S 00:41:35 21° SSE 00:43:58 10° E
STARLINK-41 3.8 00:40:10 15° SSW 00:42:10 29° SSE 00:44:53 10° E
CZ-4C R/B 3.6 00:38:52 10° SSE 00:43:18 79° WSW 00:47:46 10° NNW
STARLINK-1375 3.5 00:39:51 10° W 00:43:49 61° S 00:47:47 10° ESE
STARLINK-1272 4.3 00:42:02 14° SSW 00:44:27 28° SSE 00:47:32 10° E
STARLINK-62 4.3 00:43:45 14° SSW 00:45:23 21° SSE 00:47:50 10° E
Cosmos 540 Rocket 3.5 00:41:07 12° SSW 00:45:52 84° WNW 00:51:01 10° NNE
Helios 1B rocket 3.4 00:42:39 10° N 00:46:32 39° WNW 00:50:22 10° SW
STARLINK-1350 3.5 00:44:10 10° W 00:48:08 60° S 00:52:06 10° ESE
STARLINK-1307 4.3 00:46:48 13° SSW 00:49:36 30° SSE 00:52:54 10° E
Cosmos 2360 Rocket 4.3 00:46:54 10° SE 00:50:29 18° E 00:54:06 10° ENE
STARLINK-1352 3.5 00:48:25 10° W 00:52:22 60° S 00:56:20 10° ESE
STARLINK-1290 4.3 00:50:11 12° SW 00:53:06 31° SSE 00:56:26 10° E
Meteor 1-29 3.9 00:52:03 10° N 00:55:11 36° WNW 00:58:11 11° SW
Cosmos 2058 4.4 00:52:10 10° SSE 00:55:54 32° E 00:59:40 10° NNE
STARLINK-1368 3.6 00:53:00 10° W 00:56:58 59° S 01:00:56 10° ESE
Cosmos 1980 Rocket 2.2 00:51:50 11° SSW 00:57:18 88° WNW 01:03:01 10° NE
Cosmos 1455 4.1 00:54:55 10° NW 00:57:23 17° W 00:59:51 10° SW
Cosmos 2074 Rocket 4.1 00:51:31 10° S 00:57:49 82° E 01:04:08 10° NNE
CZ-4B R/B 4.3 00:53:33 10° NNE 00:58:38 48° E 01:03:44 10° S
STARLINK-1317 4.2 00:56:33 11° SW 01:00:02 36° SSE 01:03:39 10° E
STARLINK-1369 3.6 00:57:25 10° W 01:01:23 58° S 01:05:20 10° ESE
STARLINK-55 3.5 01:00:41 10° SW 01:03:43 40° SSE 01:06:46 10° E
STARLINK-1274 4.0 01:00:55 11° SW 01:04:01 34° SSE 01:07:16 10° E
STARLINK-43 3.4 01:01:23 10° WSW 01:04:59 54° S 01:08:37 10° E
STARLINK-1372 3.6 01:01:39 10° W 01:05:36 57° S 01:09:31 10° ESE
STARLINK-1291 4.0 01:04:16 10° SW 01:07:43 37° SSE 01:11:11 10° E
ADEOS II 3.4 01:02:54 10° NNE 01:07:44 35° E 01:12:32 10° SSE
Cosmos 2369 4.3 01:02:46 10° SW 01:08:18 54° NW 01:13:54 10° NNE
Cosmos 2263 Rocket 2.6 01:03:48 10° NW 01:09:05 43° WSW 01:14:20 10° S
Meteor 1-11 4.3 01:03:54 10° SSW 01:09:28 74° WNW 01:15:06 10° NNE
Cosmos 1703 4.4 01:05:57 10° SW 01:09:33 34° WNW 01:13:10 10° N
STARLINK-1378 3.6 01:06:16 10° W 01:10:13 56° SSW 01:14:10 10° ESE
STARLINK-1264 4.0 01:07:32 10° SW 01:11:00 38° SSE 01:14:31 10° E
IRS-1D 4.5 01:06:01 10° NNE 01:11:06 45° E 01:16:04 10° S
STARLINK-29 4.0 01:10:08 10° W 01:12:48 24° SSW 01:15:26 10° SSE
AQUA 4.3 01:08:11 10° NNE 01:12:56 59° ESE 01:17:38 10° S
SL-4 R/B 3.4 01:10:12 10° W 01:14:09 25° SSW 01:18:00 10° SSE
STARLINK-1267 4.0 01:10:52 10° SW 01:14:21 39° SSE 01:17:52 10° E
STARLINK-1379 3.6 01:10:45 10° W 01:14:42 55° SSW 01:18:39 10° ESE
USA 229 DEB 4.2 01:08:14 10° NW 01:15:02 46° SW 01:22:09 10° SSE
USA 229 4.2 01:08:21 10° NW 01:15:09 46° SW 01:22:16 10° SSE
STARLINK-28 3.3 01:12:07 10° WSW 01:15:12 45° SSE 01:18:17 10° E
NOSS 2-1 (C) 4.3 01:12:10 10° S 01:15:13 30° SE 01:18:32 10° ENE
NOSS 3-1 (C) 4.4 01:08:57 10° NW 01:15:51 44° SW 01:23:45 10° SSE
UNK 4.1 01:12:12 10° S 01:16:38 48° W 01:21:05 10° NNW
NPP 3.8 01:11:26 10° NNE 01:16:52 76° ESE 01:22:16 10° SSW
ARIANE 5 R/B 4.3 01:13:10 10° NE 01:17:25 27° E 01:21:36 10° SSE
STARLINK-1329 3.7 01:14:32 10° W 01:18:30 54° SSW 01:22:26 10° ESE
NOSS 2-1 (D) 4.1 01:16:58 10° SSW 01:20:04 33° SE 01:23:30 10° ENE
STARLINK-1207 3.9 01:17:33 10° SW 01:21:06 41° SSE 01:24:40 10° E
Cosmos 2184 Rocket 4.1 01:16:49 10° SSW 01:22:58 74° WNW 01:29:12 10° N
STARLINK-1362 3.7 01:19:04 10° W 01:23:01 52° SSW 01:26:58 10° ESE
Cosmos 1844 4.3 01:17:31 10° NNW 01:23:20 66° NE 01:29:07 10° SE
CZ-4C R/B 2.9 01:18:42 10° WSW 01:24:09 59° NNW 01:30:47 10° NE
NOSS 3-1 (A) 4.2 01:17:05 10° NW 01:24:10 54° SW 01:32:20 10° SSE
ERS-2 3.8 01:20:50 10° SE 01:24:13 36° ENE 01:27:38 10° N
STARLINK-1266 3.9 01:20:56 10° SW 01:24:30 42° SSE 01:28:04 10° E
BREEZE-M DEB (TANK) 3.7 01:23:14 10° SSW 01:24:46 18° SSE 01:27:02 10° ESE
STARLINK-33 3.3 01:22:24 10° WSW 01:25:23 45° SSE 01:28:23 10° E
Cosmos 1892 3.3 01:22:53 10° S 01:26:36 54° E 01:30:19 10° NNE
STARLINK-1373 3.7 01:23:36 10° W 01:27:32 51° SSW 01:31:27 10° ESE
STARLINK-1320 3.4 01:24:44 10° W 01:27:39 36° SSW 01:30:34 10° SE
STARLINK-1284 3.8 01:24:18 10° SW 01:27:52 43° SSE 01:31:28 10° E
STARLINK-1322 3.4 01:25:06 10° W 01:28:01 36° SSW 01:30:55 10° SE
STARLINK-1324 3.4 01:25:25 10° W 01:28:19 36° SSW 01:31:13 10° SE
Cosmos 1869 3.5 01:24:33 10° NNW 01:28:20 51° W 01:32:05 10° S
BREEZE-M DEB (TANK) 2.4 01:26:29 10° WSW 01:28:28 22° S 01:30:35 10° SE
STARLINK-1294 3.4 01:25:42 10° W 01:28:38 36° SSW 01:31:33 10° SE
STARLINK-26 3.4 01:25:30 10° WSW 01:28:51 50° SSE 01:32:12 10° E
STARLINK-1261 3.4 01:26:06 10° W 01:29:01 36° SSW 01:31:54 10° SE
STARLINK-1325 3.5 01:26:27 10° W 01:29:21 35° SSW 01:32:15 10° SE
STARLINK-1333 3.5 01:26:49 10° W 01:29:43 35° SSW 01:32:37 10° SE
STARLINK-1334 3.5 01:27:07 10° W 01:30:01 35° SSW 01:32:54 10° SE
STARLINK-1326 3.5 01:27:25 10° W 01:30:20 35° SSW 01:33:13 10° SE
STARLINK-1323 3.5 01:27:48 10° W 01:30:43 35° SSW 01:33:36 10° SE
STARLINK-1349 3.5 01:28:06 10° W 01:31:00 35° SSW 01:33:53 10° SE
STARLINK-1258 3.8 01:27:43 10° SW 01:31:18 44° SSE 01:34:54 10° E
STARLINK-1336 3.5 01:28:26 10° W 01:31:19 35° SSW 01:34:13 10° SE
STARLINK-1331 3.5 01:28:49 10° W 01:31:43 35° SSW 01:34:36 10° SE
STARLINK-1344 3.5 01:29:07 10° W 01:32:00 35° SSW 01:34:53 10° SE
STARLINK-1390 3.7 01:28:11 10° W 01:32:06 50° SSW 01:36:02 10° ESE
STARLINK-1343 3.5 01:29:30 10° W 01:32:23 35° SSW 01:35:16 10° SE
STARLINK-1346 3.5 01:29:46 10° W 01:32:41 35° SSW 01:35:36 10° SE
STARLINK-1328 3.5 01:30:13 10° W 01:33:06 34° SSW 01:35:59 10° SE
STARLINK-1354 3.5 01:30:31 10° W 01:33:23 34° SSW 01:36:16 10° SE
STARLINK-1347 3.5 01:30:47 10° W 01:33:41 34° SSW 01:36:33 10° SE
STARLINK-1357 3.5 01:31:13 10° W 01:34:06 34° SSW 01:36:59 10° SE
STARLINK-1335 3.5 01:31:31 10° W 01:34:24 34° SSW 01:37:15 10° SE
ATLAS CENTAUR R/B 4.0 01:31:26 10° NW 01:34:32 21° N 01:37:32 10° ENE
STARLINK-1292 3.8 01:31:08 10° WSW 01:34:44 46° SSE 01:38:20 10° E
STARLINK-1327 3.5 01:31:52 10° W 01:34:44 34° SSW 01:37:36 10° SE
STARLINK-1340 3.5 01:32:09 10° W 01:35:02 34° SSW 01:37:54 10° SE
STARLINK-1356 3.5 01:32:32 10° W 01:35:25 34° SSW 01:38:17 10° SE
STARLINK-1345 3.5 01:32:51 10° W 01:35:43 33° SSW 01:38:35 10° SE
Cosmos 2322 Rocket 2.7 01:30:31 10° SSW 01:36:00 57° ESE 01:41:30 10° NE
STARLINK-1355 3.5 01:33:13 10° W 01:36:05 33° SSW 01:38:56 10° SE
STARLINK-1321 3.5 01:33:34 10° W 01:36:25 33° SSW 01:39:17 10° SE
STARLINK-1358 3.5 01:33:57 10° W 01:36:49 33° SSW 01:39:40 10° SE
STARLINK-1332 3.6 01:34:14 10° W 01:37:06 33° SSW 01:39:57 10° SE
STARLINK-1348 3.6 01:34:35 10° W 01:37:26 33° SSW 01:40:17 10° SE
STARLINK-1330 3.6 01:34:54 10° W 01:37:45 33° SSW 01:40:37 10° SE
In-Cosmos 22 Rocket 4.4 01:32:20 10° S 01:37:53 75° E 01:43:19 10° NNE
STARLINK-1365 3.8 01:34:08 10° W 01:38:05 48° SSW 01:42:01 10° ESE
STARLINK-1363 3.6 01:35:14 10° W 01:38:05 33° SSW 01:40:56 10° SE
STARLINK-1337 3.6 01:35:37 10° W 01:38:28 33° SSW 01:41:19 10° SE
Cosmos 1461 3.8 01:34:01 10° NW 01:38:36 63° NE 01:43:18 10° ESE
STARLINK-1342 3.6 01:35:55 10° W 01:38:46 33° SSW 01:41:37 10° SE
Resurs 1-4 Rocket 2.3 01:33:31 10° NNE 01:38:48 69° WNW 01:44:05 10° SSW
STARLINK-1364 3.6 01:36:16 10° W 01:39:07 32° SSW 01:41:57 10° SE
STARLINK-1376 3.6 01:36:36 10° W 01:39:27 32° SSW 01:42:17 10° SE
STARLINK-1360 3.6 01:36:56 10° W 01:39:47 32° SSW 01:42:38 10° SE
